• In Deutschland
  • Länderverzeichnis
  • Für 7 Tage
  • Wassertemperatur
  • Satellitenkarten
  • Wetterkarte
  • Widgets
  • user-avatar
    Anmelden

    Stündliche Wetter Thimbu

    Heute, 20 Oktober, Samstag

    Zeit Temperatur Niederschläge Wind Luftdruck Luftfeuchtigkeit
    00:00 +4°C° 0 mm 1 m/S 524 mmHg 85%
    01:00 +4°C° 0 mm 1 m/S 524 mmHg 83%
    02:00 +4°C° 0 mm 1 m/S 524 mmHg 81%
    03:00 +4°C° 0 mm 1 m/S 523 mmHg 80%
    04:00 +4°C° 0 mm 1 m/S 523 mmHg 78%
    05:00 +3°C° 0 mm 1 m/S 523 mmHg 76%
    06:00 +3°C° 0 mm 1 m/S 524 mmHg 75%
    07:00 +6°C° 0 mm 1 m/S 525 mmHg 66%
    08:00 +8°C° 0 mm 2 m/S 527 mmHg 58%
    09:00 +10°C° 0 mm 2 m/S 529 mmHg 49%
    10:00 +12°C° 0 mm 2 m/S 529 mmHg 48%
    11:00 +12°C° 0 mm 3 m/S 529 mmHg 47%
    12:00 +13°C° 0 mm 3 m/S 529 mmHg 49%
    13:00 +12°C° 0 mm 3 m/S 529 mmHg 53%
    14:00 +12°C° 0 mm 3 m/S 528 mmHg 58%
    15:00 +11°C° 0 mm 3 m/S 527 mmHg 63%
    16:00 +9°C° 0.1 mm 2 m/S 526 mmHg 73%
    17:00 +7°C° 0.1 mm 2 m/S 525 mmHg 83%
    18:00 +7°C° 0 mm 1 m/S 524 mmHg 94%
    19:00 +6°C° 0 mm 1 m/S 525 mmHg 92%
    20:00 +6°C° 0 mm 1 m/S 525 mmHg 90%
    21:00 +6°C° 0 mm 1 m/S 525 mmHg 89%
    22:00 +5°C° 0 mm 1 m/S 525 mmHg 87%
    23:00 +5°C° 0 mm 1 m/S 525 mmHg 85%

    Morgen, 21 Oktober, Sonntag

    Zeit Temperatur Niederschläge Wind Luftdruck Luftfeuchtigkeit
    00:00 +4°C° 0 mm 1 m/S 524 mmHg 83%
    01:00 +4°C° 0 mm 1 m/S 524 mmHg 81%
    02:00 +4°C° 0 mm 1 m/S 524 mmHg 80%
    03:00 +3°C° 0 mm 2 m/S 524 mmHg 78%
    04:00 +3°C° 0 mm 2 m/S 524 mmHg 77%
    05:00 +2°C° 0 mm 2 m/S 524 mmHg 75%
    06:00 +2°C° 0 mm 2 m/S 524 mmHg 73%
    07:00 +5°C° 0 mm 2 m/S 526 mmHg 65%
    08:00 +8°C° 0 mm 2 m/S 528 mmHg 56%
    09:00 +12°C° 0 mm 1 m/S 530 mmHg 47%
    10:00 +13°C° 0 mm 2 m/S 530 mmHg 46%
    11:00 +14°C° 0 mm 2 m/S 530 mmHg 44%
    12:00 +14°C° 0 mm 3 m/S 530 mmHg 43%
    13:00 +13°C° 0 mm 3 m/S 529 mmHg 49%
    14:00 +12°C° 0 mm 3 m/S 528 mmHg 55%
    15:00 +11°C° 0 mm 3 m/S 527 mmHg 60%
    16:00 +10°C° 0.1 mm 2 m/S 526 mmHg 71%
    17:00 +8°C° 0.1 mm 2 m/S 525 mmHg 82%
    18:00 +7°C° 0.1 mm 1 m/S 524 mmHg 92%
    19:00 +6°C° 0 mm 1 m/S 524 mmHg 91%
    20:00 +6°C° 0 mm 1 m/S 525 mmHg 89%
    21:00 +6°C° 0 mm 1 m/S 525 mmHg 88%
    22:00 +5°C° 0 mm 1 m/S 525 mmHg 86%
    23:00 +5°C° 0 mm 1 m/S 524 mmHg 84%

    übermorgen, 22 Oktober, Montag

    Zeit Temperatur Niederschläge Wind Luftdruck Luftfeuchtigkeit
    00:00 +5°C° 0 mm 1 m/S 524 mmHg 83%
    01:00 +4°C° 0 mm 1 m/S 524 mmHg 82%
    02:00 +4°C° 0 mm 1 m/S 523 mmHg 81%
    03:00 +4°C° 0 mm 1 m/S 523 mmHg 80%
    04:00 +3°C° 0 mm 1 m/S 523 mmHg 79%
    05:00 +3°C° 0 mm 1 m/S 523 mmHg 78%
    06:00 +3°C° 0 mm 1 m/S 523 mmHg 77%
    07:00 +6°C° 0 mm 1 m/S 525 mmHg 67%
    08:00 +8°C° 0 mm 1 m/S 527 mmHg 58%
    09:00 +10°C° 0 mm 2 m/S 529 mmHg 48%
    10:00 +12°C° 0 mm 2 m/S 529 mmHg 47%
    11:00 +12°C° 0 mm 2 m/S 528 mmHg 47%
    12:00 +12°C° 0 mm 3 m/S 528 mmHg 46%
    13:00 +11°C° 0.1 mm 3 m/S 527 mmHg 52%
    14:00 +11°C° 0.1 mm 3 m/S 527 mmHg 57%
    15:00 +10°C° 0.1 mm 3 m/S 526 mmHg 63%
    16:00 +8°C° 0.1 mm 2 m/S 525 mmHg 73%
    17:00 +7°C° 0.1 mm 2 m/S 524 mmHg 83%
    18:00 +6°C° 0.1 mm 1 m/S 523 mmHg 93%
    19:00 +5°C° 0 mm 1 m/S 523 mmHg 91%
    20:00 +5°C° 0 mm 1 m/S 524 mmHg 90%
    21:00 +5°C° 0 mm 1 m/S 524 mmHg 88%
    22:00 +4°C° 0 mm 1 m/S 524 mmHg 86%
    23:00 +4°C° 0 mm 1 m/S 524 mmHg 85%

    23 Oktober, Dienstag

    Zeit Temperatur Niederschläge Wind Luftdruck Luftfeuchtigkeit
    00:00 +4°C° 0 mm 1 m/S 523 mmHg 83%
    01:00 +2°C° 0 mm 2 m/S 523 mmHg 81%
    02:00 +2°C° 0 mm 2 m/S 523 mmHg 80%
    03:00 +2°C° 0 mm 2 m/S 522 mmHg 78%
    04:00 +1°C° 0 mm 2 m/S 522 mmHg 76%
    05:00 +1°C° 0 mm 2 m/S 522 mmHg 74%
    06:00 +1°C° 0 mm 2 m/S 522 mmHg 72%
    07:00 +4°C° 0 mm 2 m/S 524 mmHg 63%
    08:00 +7°C° 0 mm 2 m/S 526 mmHg 53%
    09:00 +9°C° 0 mm 2 m/S 528 mmHg 44%
    10:00 +10°C° 0 mm 2 m/S 528 mmHg 43%
    11:00 +11°C° 0 mm 3 m/S 528 mmHg 42%
    12:00 +12°C° 0 mm 3 m/S 528 mmHg 41%
    13:00 +11°C° 0.1 mm 3 m/S 527 mmHg 46%
    14:00 +11°C° 0.1 mm 3 m/S 526 mmHg 52%
    15:00 +10°C° 0.1 mm 3 m/S 525 mmHg 57%
    16:00 +8°C° 0.1 mm 3 m/S 525 mmHg 67%
    17:00 +6°C° 0.1 mm 2 m/S 524 mmHg 78%
    18:00 +4°C° 0.1 mm 2 m/S 523 mmHg 89%
    19:00 +4°C° 0 mm 2 m/S 523 mmHg 87%
    20:00 +3°C° 0 mm 2 m/S 523 mmHg 86%
    21:00 +3°C° 0 mm 2 m/S 524 mmHg 85%
    22:00 +2°C° 0 mm 2 m/S 523 mmHg 82%
    23:00 +2°C° 0 mm 2 m/S 523 mmHg 80%

    24 Oktober, Mittwoch

    Zeit Temperatur Niederschläge Wind Luftdruck Luftfeuchtigkeit
    00:00 +2°C° 0 mm 2 m/S 523 mmHg 78%
    01:00 +1°C° 0 mm 2 m/S 522 mmHg 76%
    02:00 +1°C° 0 mm 2 m/S 522 mmHg 73%
    03:00 +1°C° 0 mm 2 m/S 522 mmHg 71%
    04:00 +1°C° 0 mm 2 m/S 522 mmHg 69%
    05:00 +1°C° 0 mm 2 m/S 522 mmHg 67%
    06:00 -1°C° 0 mm 2 m/S 522 mmHg 65%
    07:00 +3°C° 0 mm 2 m/S 524 mmHg 56%
    08:00 +6°C° 0 mm 2 m/S 526 mmHg 46%
    09:00 +9°C° 0 mm 2 m/S 528 mmHg 37%
    10:00 +10°C° 0 mm 2 m/S 528 mmHg 35%
    11:00 +11°C° 0 mm 3 m/S 528 mmHg 34%
    12:00 +12°C° 0 mm 3 m/S 528 mmHg 33%
    13:00 +11°C° 0 mm 3 m/S 528 mmHg 37%
    14:00 +11°C° 0 mm 3 m/S 527 mmHg 41%
    15:00 +10°C° 0 mm 3 m/S 526 mmHg 45%
    16:00 +8°C° 0 mm 2 m/S 525 mmHg 57%
    17:00 +6°C° 0 mm 2 m/S 524 mmHg 69%
    18:00 +4°C° 0 mm 1 m/S 523 mmHg 81%
    19:00 +4°C° 0 mm 1 m/S 523 mmHg 80%
    20:00 +3°C° 0 mm 1 m/S 523 mmHg 78%
    21:00 +2°C° 0 mm 2 m/S 524 mmHg 76%
    22:00 +2°C° 0 mm 2 m/S 523 mmHg 73%
    23:00 +1°C° 0 mm 2 m/S 523 mmHg 70%

    25 Oktober, Donnerstag

    Zeit Temperatur Niederschläge Wind Luftdruck Luftfeuchtigkeit
    00:00 +1°C° 0 mm 2 m/S 523 mmHg 67%
    01:00 +1°C° 0 mm 2 m/S 523 mmHg 64%
    02:00 +1°C° 0 mm 2 m/S 523 mmHg 61%
    03:00 +1°C° 0 mm 2 m/S 523 mmHg 58%
    04:00 +1°C° 0 mm 2 m/S 523 mmHg 55%
    05:00 +1°C° 0 mm 2 m/S 523 mmHg 52%
    06:00 -1°C° 0 mm 2 m/S 523 mmHg 49%
    07:00 +4°C° 0 mm 2 m/S 526 mmHg 42%
    08:00 +8°C° 0 mm 1 m/S 528 mmHg 35%
    09:00 +11°C° 0 mm 1 m/S 530 mmHg 27%
    10:00 +12°C° 0 mm 2 m/S 530 mmHg 27%
    11:00 +13°C° 0 mm 2 m/S 530 mmHg 27%
    12:00 +12°C° 0 mm 3 m/S 530 mmHg 27%
    13:00 +12°C° 0 mm 3 m/S 529 mmHg 31%
    14:00 +12°C° 0 mm 3 m/S 529 mmHg 35%
    15:00 +11°C° 0 mm 3 m/S 528 mmHg 39%
    16:00 +8°C° 0 mm 2 m/S 527 mmHg 52%
    17:00 +6°C° 0 mm 2 m/S 525 mmHg 65%
    18:00 +4°C° 0 mm 1 m/S 524 mmHg 78%
    19:00 +4°C° 0 mm 1 m/S 524 mmHg 76%
    20:00 +2°C° 0 mm 2 m/S 525 mmHg 74%
    21:00 +2°C° 0 mm 2 m/S 525 mmHg 73%
    22:00 +2°C° 0 mm 2 m/S 525 mmHg 70%
    23:00 +2°C° 0 mm 2 m/S 525 mmHg 67%
    Mehr zeigen